Tracking 21679 objects as of 31-Oct-2020
HD Live streaming from Space Station
objects crossing your sky now

ARIANE 1 R/B

Track ARIANE 1 R/B now!
10-day predictions


NORAD ID: 16615
Int'l Code: 1986-019C
Perigee: 784.3 km
Apogee: 801.4 km
Inclination: 98.5 °
Period: 100.6 minutes
Semi major axis: 7163 km
RCS: 7.0687 m2 (large)
Launch date: February 22, 1986
Source: France (FR)
Launch site: FRENCH GUIANA (FRGUI)

Note: This is a ROCKET BODY
aabbcc
Your satellite tracking list
Your tracking list is empty




NASA's NSSDC Master Catalog

Two Line Element Set (TLE):
1 16615U 86019C   20304.45672737  .00000035  00000-0  28957-4 0  9996
2 16615  98.4630   6.5778 0011922  17.3420 353.6677 14.31812230815686
Source of the keplerian elements: AFSPC